DELTA 1 DEB, 7058

Orbit data source: Space-Track

DELTA 1 DEB, 7058 is space debris in SSO originally from a launch on Tue, 06 Nov 1973 UTC launched from the Air Force Western Test Range (AFWTR). Debris objects in space refer to the collection of defunct objects orbiting the Earth. Examples of debris include non-operational satellites, rocket bodies, and fragments generated from explosions, collisions, or faulty payload assembly.

Loading next visibility...
Identifier
7058, 1973-086BA
Orbit
SSO
Country
Flag of USUS
Related business
Manufacturer
Unknown
Mission
Spacecraft
Bus & Motor
Unknown
Mass
Unknown
Launch date (UTC)
1973-11-06 (52 years ago)
Launch vehicle
Unknown
Launch site
Air Force Western Test Range (AFWTR)
Object type
Payload
Rocket body
Debris
Shape & HBR
Unknown shape, 0.2 m
Radar Cross Section
Small (<0.1 m²)

Expand to show TLE details & history
Last TLE update: 16 hours ago

TLE from 16 hours ago
0 DELTA 1 DEB
1  7058U 73086BA  26122.43389993  .00000278  00000-0  19969-2 0  9998
2  7058 101.8436 110.9062 0008211 103.6633  51.7942 12.54852270393423
Epoch: 2026-05-02T10:24Z
TLE epoch observation values (Epoch: 2026-05-02T10:24:48.953Z)
Latitude
23.93867°
Longitude
-80.33415°
Altitude
1,442.89 km
Speed
7.144 km/s
True Right ascension
19h 44m 53s
True Declination
23° 49' 21"
Sunlit
Object was in daylight at epoch
Visualization orbit readout
Latitude
Unknown
Longitude
Unknown
Altitude
Unknown
Speed
Unknown
Apparent Right ascension
Unknown
Apparent Declination
Unknown
Sunlit
N/A
Visualization observer readout
Local Sidereal Time
10:22:16
Azimuth
Unknown
Elevation
Unknown
Doppler factor
Unknown
Orbital elements
Apogee altitude
1,448.232 km
Perigee altitude
1,435.39 km
Semi-major axis
7,819.948 km
Eccentricity
0.00082
Inclination
101.8436°
RAAN
110.9062°
Arg. of periapsis
103.6633°
True anomaly
51.86818°
Mean anomaly
51.7942°
Eccentric anomaly
51.83119°
Mean motion
3.13861 °/min
Orbital period
114.7 mins
BSTAR
0.0019969
Loading maneuver chart data...
Computing Atmospheric mass density...
Loading historical data...
Loading historical data...
Loading historical data...
Loading historical data...
Loading historical data...
Loading historical data...
Loading historical data...

Documentation

Showing up to 5 results
|